Simultaneous Nadir Overpasses (SNOs) Predictions

Prediction of SNOs between LANDSAT-8 and NOAA-19 Satellite Orbit:

Table of predicted SNOs for the next 14.0 days since TLE Epoch: 7/27/2015
Index Date (LANDSAT-8) Time (LANDSAT-8) Lat,Lon (LANDSAT-8) SZA (LANDSAT-8 ) Date (NOAA-19) Time (NOAA-19) Lat,Lon (NOAA-19) SZA (NOAA-19 ) Distance(km) Time Diff (sec)
1 07/29/2015 15:05:12 73.44, -44.39 54.63 07/29/2015 15:04:40 73.41, -44.41 54.60 3.22 32
2 07/29/2015 15:54:42 -73.32, 122.99 125.49 07/29/2015 15:55:41 -73.33, 123.02 125.48 1.87 59
3 07/31/2015 19:49:19 74.01,-114.23 55.74 07/31/2015 19:48:12 74.06,-116.81 55.79 79.21 67
4 07/31/2015 20:38:58 -73.42, 52.12 124.86 07/31/2015 20:39:02 -73.42, 52.03 124.86 3.13 4
5 08/03/2015 01:23:15 -73.46, -18.85 124.26 08/03/2015 01:22:22 -73.46, -18.87 124.26 0.44 53
6 08/03/2015 02:12:42 73.37, 148.61 55.67 08/03/2015 02:13:19 73.37, 148.60 55.67 0.44 37
7 08/05/2015 06:56:59 73.41, 77.62 56.29 08/05/2015 06:56:39 73.44, 77.64 56.32 3.49 20
8 08/05/2015 07:46:28 -73.35,-114.88 123.77 08/05/2015 07:47:41 -73.33,-114.87 123.78 2.02 73
9 08/07/2015 11:41:14 73.55, 6.84 57.03 08/07/2015 11:40:01 73.62, 6.44 57.10 14.53 73
10 08/07/2015 12:30:45 -73.39, 174.13 123.13 08/07/2015 12:31:01 -73.38, 174.22 123.13 2.96 16
11 08/09/2015 17:15:01 -73.47, 103.24 122.42 08/09/2015 17:14:22 -73.49, 103.18 122.40 2.72 39
